Погода в Красных Липках

Россия / Волгоградская область     49°38′09″N   43°44′28″E
темп.,
°C
ветер,
м/с
пор.,
м/с
влажн.,
%
обл.,
%
осадки,
мм/ч
давл.,
гПа
погр.,
м
21 апреля, ср
ср2100:00+13ююв10168298 0.4 1009954
03:00+12ююв814909 0.8 1010496
06:00+10ю7138930 0.1 1011840
09:00+12ю91371100 0.2 10131159
12:00+13юз9127398 0.1 10151302
15:00+15зюз795496 0.2 10151713
18:00+12юз5869100 0.2 1017340
21:00+10ю498059 1.1 1019174
22 апреля, чт
чт2200:00+9юз37815 0.0 1020128
03:00+8юз238528 0.0 102123
06:00+8ююз238449 0.0 102250
09:00+13юз23635 0.0 1022456
12:00+16ю334552 0.0 10221835
15:00+17ююз3341100 0.0 10221922
18:00+15ююз2255100 0.0 102238
21:00+14ююв2254100 0.0 102213
23 апреля, пт
пт2300:00+13юв1155100 0.0 102211
03:00+12вюв2360100 0.0 102134
06:00+11юв336799 0.0 102261
09:00+14ююз2359100 0.1 1022422
12:00+16вюв334696 0.4 10211811
15:00+16ю224598 0.4 10201780
18:00+14зюз456662 0.7 1019313
21:00+11ю117619 0.8 101911
24 апреля, сб
сб2400:00+10ю117915 0.0 101810
03:00+9ю228342 0.0 101620
06:00+9ю3483100 0.0 1016109
09:00+13ююз566592 0.0 1015517
12:00+16юз81051100 0.4 10131963
15:00+16юз8105397 0.9 10121875
18:00+9з7117597 0.5 1015917
21:00+7юз37820 0.5 1016152
25 апреля, вс
вс2500:00+6юз36820 0.0 1016110
03:00+5зюз47815 0.0 1017181
06:00+6юз388067 0.0 1017270
09:00+9зюз694983 0.0 10171389
12:00+11зюз7938100 0.0 10172157
15:00+12зюз7937100 0.0 10162277
18:00+10зсз4648100 0.0 1017509
21:00+8зсз3455100 0.0 101786